Overview Statistics Trail Chart Weather Telemetry Raw packets
 

This is the latest recevied weather packets stored in our database for station/object WABO. If no packets are shown the sender has not sent any weather packets the latest 10 day(s).

<< 3 4 5 6 7 8 9 >>
Time Temp. Humidity Pressure Rain* Wind** Luminosity Snow
1788086419 27.78° C 74% 1 hPa 0 mm - - -
1788084451 27.78° C 74% 1 hPa 0 mm - - -
1788082484 30° C 66% 1 hPa 0 mm - - -
1788080506 30° C 66% 1 hPa 0 mm - - -
1788078534 31.11° C 62% 1009 hPa 0 mm - - -
1788076560 31.11° C 62% 1009 hPa 0 mm - - -
1788074593 31.11° C 62% 1009 hPa 0 mm - - -
1788072622 32.22° C 59% 1011 hPa 0 mm - - -
1788070660 32.22° C 59% 1011 hPa 0 mm - - -
1788068684 32.22° C 59% 1011 hPa 0 mm - - -
1788066722 32.22° C 59% 1011 hPa 0 mm - - -
1788064756 31.11° C 66% 1012 hPa 0 mm - - -
1788062793 31.11° C 66% 1012 hPa 0 mm - - -
1788060827 32.22° C 59% 1012 hPa 0 mm - - -
1788058865 32.22° C 59% 1012 hPa 0 mm - - -
1788056902 31.11° C 62% 1013 hPa 0 mm - - -
1788054936 31.11° C 62% 1013 hPa 0 mm - - -
1788052969 30° C 62% 1013 hPa 0 mm - - -
1788051005 28.89° C 58% 1013 hPa 0 mm - - -
1788049043 28.89° C 58% 1013 hPa 0 mm - - -
1788047078 25° C 83% 1012 hPa 0 mm - - -
1788045118 25° C 83% 1012 hPa 0 mm - - -
1788043163 22.78° C 94% 1012 hPa 0 mm - - -
1788041223 22.78° C 94% 1012 hPa 0 mm - - -
1788039289 23.89° C 89% 1012 hPa 0 mm - - -

* Rain latest hour (hover to see other rain measurements)
** Current wind speed in m/s (hover to see current wind gust speed)